Time,TemperatureF,DewpointF,PressureIn,WindDirection,WindDirectionDegrees,WindSpeedMPH,WindSpeedGustMPH,Humidity,HourlyPrecipIn,Conditions,Clouds,dailyrainin,SoftwareType,DateUTC
2016-02-14 00:02:00,35.4,5.2,30.17,East,79,4.4,10.3,28,0.00,,OVC042,0.00,VWS V14.01,2016-02-14 06:02:00,
2016-02-14 00:07:00,35.4,5.2,30.17,East,96,10.3,10.3,28,0.00,,OVC042,0.00,VWS V14.01,2016-02-14 06:07:00,
2016-02-14 00:12:00,35.4,5.2,30.14,East,96,7.8,12.5,28,0.00,,OVC042,0.00,VWS V14.01,2016-02-14 06:12:00,
2016-02-14 00:17:00,35.4,5.2,30.14,ESE,119,3.9,13.0,28,0.00,,OVC042,0.00,VWS V14.01,2016-02-14 06:17:00,
2016-02-14 00:22:00,35.4,5.2,30.14,East,83,7.2,9.4,28,0.00,,OVC042,0.00,VWS V14.01,2016-02-14 06:22:00,
2016-02-14 00:27:00,35.4,5.2,30.14,ESE,121,10.8,13.6,28,0.00,,OVC042,0.00,VWS V14.01,2016-02-14 06:27:00,
2016-02-14 00:32:00,35.4,5.2,30.14,ESE,107,6.7,7.8,28,0.00,,OVC042,0.00,VWS V14.01,2016-02-14 06:32:00,
2016-02-14 00:37:00,35.2,5.1,30.14,ESE,104,7.8,9.4,28,0.00,,OVC042,0.00,VWS V14.01,2016-02-14 06:37:00,
2016-02-14 00:42:00,35.2,5.1,30.14,ESE,108,10.0,12.5,28,0.00,,OVC036,0.00,VWS V14.01,2016-02-14 06:42:00,
2016-02-14 00:47:00,35.2,5.1,30.14,ENE,69,10.3,10.8,28,0.00,,OVC036,0.00,VWS V14.01,2016-02-14 06:47:00,
2016-02-14 00:57:00,35.1,4.9,30.14,East,86,3.9,10.8,28,0.00,,OVC034,0.00,VWS V14.01,2016-02-14 06:57:00,
2016-02-14 01:02:00,35.1,4.9,30.14,ESE,117,10.3,10.3,28,0.00,,OVC034,0.00,VWS V14.01,2016-02-14 07:02:00,
2016-02-14 01:12:00,35.1,4.9,30.11,ESE,106,12.5,12.5,28,0.00,,OVC034,0.00,VWS V14.01,2016-02-14 07:12:00,
2016-02-14 01:17:00,35.1,4.9,30.11,East,91,6.7,10.8,28,0.00,,OVC034,0.00,VWS V14.01,2016-02-14 07:17:00,
2016-02-14 01:22:00,35.1,4.9,30.11,ESE,122,10.0,10.0,28,0.00,,OVC034,0.00,VWS V14.01,2016-02-14 07:22:00,
2016-02-14 01:27:00,35.1,4.9,30.11,ESE,104,9.4,13.6,28,0.00,,OVC034,0.00,VWS V14.01,2016-02-14 07:27:00,
2016-02-14 01:33:00,35.1,4.9,30.11,ESE,115,7.2,10.0,28,0.00,,OVC034,0.00,VWS V14.01,2016-02-14 07:33:00,
2016-02-14 01:38:00,35.2,5.1,30.11,South,186,10.8,13.0,28,0.00,,OVC034,0.00,VWS V14.01,2016-02-14 07:38:00,
2016-02-14 01:43:00,35.2,5.1,30.09,East,99,3.9,10.8,28,0.00,,OVC034,0.00,VWS V14.01,2016-02-14 07:43:00,
2016-02-14 01:48:00,35.2,5.1,30.09,ESE,120,9.4,10.0,28,0.00,,OVC034,0.00,VWS V14.01,2016-02-14 07:48:00,
2016-02-14 01:53:00,35.2,5.1,30.09,East,99,8.9,13.6,28,0.00,,OVC034,0.00,VWS V14.01,2016-02-14 07:53:00,
2016-02-14 01:58:00,35.2,5.1,30.09,East,95,6.7,10.0,28,0.00,,OVC034,0.00,VWS V14.01,2016-02-14 07:58:00,
2016-02-14 02:03:00,35.2,5.1,30.09,SE,134,10.0,15.3,28,0.00,,OVC034,0.00,VWS V14.01,2016-02-14 08:03:00,
2016-02-14 02:08:00,35.2,5.1,30.09,ESE,112,7.8,7.8,28,0.00,,OVC034,0.00,VWS V14.01,2016-02-14 08:08:00,
2016-02-14 02:13:00,35.2,5.1,30.09,ESE,114,6.7,12.5,28,0.00,,OVC034,0.00,VWS V14.01,2016-02-14 08:13:00,
2016-02-14 02:18:00,35.4,5.2,30.09,NE,37,7.2,11.4,28,0.00,,OVC034,0.00,VWS V14.01,2016-02-14 08:18:00,
2016-02-14 02:28:00,35.4,5.2,30.09,East,97,10.0,13.0,28,0.00,,OVC034,0.00,VWS V14.01,2016-02-14 08:28:00,
2016-02-14 02:33:00,35.6,5.4,30.09,ESE,108,8.3,9.4,28,0.00,,OVC034,0.00,VWS V14.01,2016-02-14 08:33:00,
2016-02-14 02:38:00,35.6,5.4,30.06,SSE,164,9.4,11.4,28,0.00,,OVC034,0.00,VWS V14.01,2016-02-14 08:38:00,
2016-02-14 02:43:00,35.6,5.4,30.06,SE,129,7.2,13.0,28,0.00,,OVC034,0.00,VWS V14.01,2016-02-14 08:43:00,
2016-02-14 02:48:00,35.6,5.4,30.06,ESE,108,10.8,18.0,28,0.00,,OVC034,0.00,VWS V14.01,2016-02-14 08:48:00,
2016-02-14 02:53:00,35.8,5.5,30.03,ENE,78,7.8,10.3,28,0.00,,OVC032,0.00,VWS V14.01,2016-02-14 08:53:00,
2016-02-14 02:59:00,35.8,5.5,30.03,SE,137,10.0,13.0,28,0.00,,OVC032,0.00,VWS V14.01,2016-02-14 08:59:00,
2016-02-14 03:04:00,35.8,5.5,30.03,East,95,12.5,13.6,28,0.00,,OVC032,0.00,VWS V14.01,2016-02-14 09:04:00,
2016-02-14 03:09:00,36.0,8.1,30.06,South,175,7.2,10.0,31,0.00,,OVC032,0.00,VWS V14.01,2016-02-14 09:09:00,
2016-02-14 03:14:00,36.0,8.1,30.06,SE,138,10.0,10.0,31,0.00,,OVC032,0.00,VWS V14.01,2016-02-14 09:14:00,
2016-02-14 03:19:00,36.1,8.3,30.06,East,89,6.7,12.5,31,0.00,,OVC032,0.00,VWS V14.01,2016-02-14 09:19:00,
2016-02-14 03:24:00,36.1,8.3,30.03,SE,124,7.8,10.0,31,0.00,,OVC032,0.00,VWS V14.01,2016-02-14 09:24:00,
2016-02-14 03:29:00,36.3,8.4,30.03,East,91,6.7,7.8,31,0.00,,OVC032,0.00,VWS V14.01,2016-02-14 09:29:00,
2016-02-14 03:34:00,36.3,8.4,30.03,SE,130,6.7,13.0,31,0.00,,OVC032,0.00,VWS V14.01,2016-02-14 09:34:00,
2016-02-14 03:39:00,36.3,8.4,30.03,SE,142,6.1,13.6,31,0.00,,OVC032,0.00,VWS V14.01,2016-02-14 09:39:00,
2016-02-14 03:44:00,36.5,8.6,30.03,ESE,116,10.8,13.6,31,0.00,,OVC032,0.00,VWS V14.01,2016-02-14 09:44:00,
2016-02-14 03:49:00,36.7,8.8,30.03,East,101,7.8,10.8,31,0.00,,OVC032,0.00,VWS V14.01,2016-02-14 09:49:00,
2016-02-14 03:54:00,36.7,8.8,30.03,SE,133,7.8,15.3,31,0.00,,OVC030,0.00,VWS V14.01,2016-02-14 09:54:00,
2016-02-14 03:59:00,36.9,8.9,30.03,ESE,109,7.8,9.4,31,0.00,,OVC030,0.00,VWS V14.01,2016-02-14 09:59:00,
2016-02-14 04:09:00,37.0,12.4,30.00,SSE,154,10.0,11.4,36,0.00,,OVC030,0.00,VWS V14.01,2016-02-14 10:09:00,
2016-02-14 04:14:00,37.2,12.5,30.00,East,99,6.1,8.3,36,0.00,,OVC030,0.00,VWS V14.01,2016-02-14 10:14:00,
2016-02-14 04:20:00,37.4,11.6,30.00,SE,135,10.0,10.3,34,0.00,,OVC030,0.00,VWS V14.01,2016-02-14 10:20:00,
2016-02-14 04:25:00,37.4,11.6,30.00,ESE,102,3.9,6.7,34,0.00,,OVC030,0.00,VWS V14.01,2016-02-14 10:25:00,
2016-02-14 04:30:00,37.6,11.8,30.00,SE,129,3.3,8.9,34,0.00,,OVC030,0.00,VWS V14.01,2016-02-14 10:30:00,
2016-02-14 04:35:00,37.6,11.8,30.00,SE,146,6.7,10.3,34,0.00,,OVC030,0.00,VWS V14.01,2016-02-14 10:35:00,
2016-02-14 04:40:00,37.8,11.9,30.03,SSE,148,5.0,12.5,34,0.00,,OVC026,0.00,VWS V14.01,2016-02-14 10:40:00,
2016-02-14 04:45:00,37.9,12.1,30.03,SE,126,6.7,10.3,34,0.00,,OVC026,0.00,VWS V14.01,2016-02-14 10:45:00,
2016-02-14 04:50:00,37.9,15.1,30.03,SSE,155,5.0,12.5,39,0.00,,OVC024,0.00,VWS V14.01,2016-02-14 10:50:00,
2016-02-14 04:55:00,38.1,15.3,30.03,SE,138,6.1,9.4,39,0.00,,OVC024,0.00,VWS V14.01,2016-02-14 10:55:00,
2016-02-14 05:05:00,38.1,15.3,30.03,SE,133,6.7,13.0,39,0.00,,OVC024,0.00,VWS V14.01,2016-02-14 11:05:00,
2016-02-14 05:15:00,38.3,17.3,30.00,SSE,148,5.0,7.2,42,0.00,,OVC024,0.00,VWS V14.01,2016-02-14 11:15:00,
2016-02-14 05:20:00,38.3,17.3,30.00,SE,132,9.4,10.3,42,0.00,,OVC024,0.00,VWS V14.01,2016-02-14 11:20:00,
2016-02-14 05:25:00,38.3,17.3,30.00,SE,141,5.0,12.5,42,0.00,,OVC024,0.00,VWS V14.01,2016-02-14 11:25:00,
2016-02-14 05:30:00,38.5,17.5,30.00,SSE,148,7.2,13.0,42,0.00,,OVC024,0.00,VWS V14.01,2016-02-14 11:30:00,
2016-02-14 05:35:00,38.5,17.5,30.00,SSE,152,7.8,9.4,42,0.00,,OVC024,0.00,VWS V14.01,2016-02-14 11:35:00,
2016-02-14 05:40:00,38.5,17.5,30.00,SSE,149,10.0,10.0,42,0.00,,OVC024,0.00,VWS V14.01,2016-02-14 11:40:00,
2016-02-14 05:45:00,38.5,20.0,30.00,SSE,164,9.4,13.6,47,0.00,,OVC024,0.00,VWS V14.01,2016-02-14 11:45:00,
2016-02-14 05:50:00,38.5,20.0,30.00,SSE,148,4.4,7.8,47,0.00,,OVC020,0.00,VWS V14.01,2016-02-14 11:50:00,
2016-02-14 05:55:00,38.5,20.0,30.03,ESE,113,6.7,9.4,47,0.00,,OVC020,0.00,VWS V14.01,2016-02-14 11:55:00,
2016-02-14 06:01:00,38.5,20.0,30.03,SE,145,7.8,12.5,47,0.00,,OVC020,0.00,VWS V14.01,2016-02-14 12:01:00,
2016-02-14 06:06:00,38.5,20.0,30.03,SSE,152,4.4,7.8,47,0.00,,OVC020,0.00,VWS V14.01,2016-02-14 12:06:00,
2016-02-14 06:11:00,38.5,20.0,30.00,SSE,159,6.7,10.0,47,0.00,,OVC020,0.00,VWS V14.01,2016-02-14 12:11:00,
2016-02-14 06:16:00,38.5,20.0,30.00,SE,131,3.9,13.6,47,0.00,,OVC020,0.00,VWS V14.01,2016-02-14 12:16:00,
2016-02-14 06:21:00,38.5,20.0,30.00,ESE,118,7.8,10.0,47,0.00,,OVC020,0.00,VWS V14.01,2016-02-14 12:21:00,
2016-02-14 06:26:00,38.5,20.8,30.00,SSE,156,6.7,10.3,49,0.00,,OVC020,0.00,VWS V14.01,2016-02-14 12:26:00,
2016-02-14 06:31:00,38.5,20.8,30.00,SSE,152,4.4,7.8,49,0.00,,OVC020,0.00,VWS V14.01,2016-02-14 12:31:00,
2016-02-14 06:36:00,38.5,20.8,30.00,SE,146,4.4,7.8,49,0.00,,OVC020,0.00,VWS V14.01,2016-02-14 12:36:00,
2016-02-14 06:41:00,38.5,20.8,30.00,SSE,153,6.7,6.7,49,0.00,,OVC020,0.00,VWS V14.01,2016-02-14 12:41:00,
2016-02-14 06:46:00,38.5,20.8,30.00,SE,141,3.9,6.7,49,0.00,,OVC020,0.00,VWS V14.01,2016-02-14 12:46:00,
2016-02-14 06:51:00,38.5,20.8,30.00,SSE,152,4.4,6.7,49,0.00,,OVC018,0.00,VWS V14.01,2016-02-14 12:51:00,
2016-02-14 06:56:00,38.7,21.7,30.00,SSE,158,0.0,2.8,50,0.00,,OVC018,0.00,VWS V14.01,2016-02-14 12:56:00,
2016-02-14 07:01:00,38.7,21.7,30.00,SSE,158,3.3,5.0,50,0.00,,OVC018,0.00,VWS V14.01,2016-02-14 13:01:00,
2016-02-14 07:06:00,38.7,21.7,30.00,SSE,158,0.0,0.0,50,0.00,,OVC018,0.00,VWS V14.01,2016-02-14 13:06:00,
2016-02-14 07:11:00,38.7,21.7,30.03,SSE,158,0.0,3.3,50,0.00,,OVC018,0.00,VWS V14.01,2016-02-14 13:11:00,
2016-02-14 07:16:00,38.8,22.7,30.03,SSE,158,3.9,6.1,52,0.00,,OVC018,0.00,VWS V14.01,2016-02-14 13:16:00,
2016-02-14 07:21:00,38.8,22.7,30.03,NE,51,3.3,5.0,52,0.00,,OVC018,0.00,VWS V14.01,2016-02-14 13:21:00,
2016-02-14 07:26:00,38.8,21.9,30.03,NE,49,0.0,2.8,50,0.00,,OVC018,0.00,VWS V14.01,2016-02-14 13:26:00,
2016-02-14 07:31:00,38.8,22.7,30.03,NNE,32,0.0,3.3,52,0.00,,OVC018,0.00,VWS V14.01,2016-02-14 13:31:00,
2016-02-14 07:36:00,38.8,22.7,30.03,NNE,33,0.0,3.3,52,0.00,,OVC018,0.00,VWS V14.01,2016-02-14 13:36:00,
2016-02-14 07:42:00,38.8,22.7,30.06,NNE,32,0.0,0.0,52,0.00,,OVC018,0.00,VWS V14.01,2016-02-14 13:42:00,
2016-02-14 07:47:00,38.8,22.7,30.06,NNE,27,3.3,3.3,52,0.00,,OVC018,0.00,VWS V14.01,2016-02-14 13:47:00,
2016-02-14 07:52:00,38.8,22.7,30.06,NNE,27,0.0,0.0,52,0.00,,OVC020,0.00,VWS V14.01,2016-02-14 13:52:00,
2016-02-14 07:57:00,38.8,22.7,30.03,NNE,27,0.0,0.0,52,0.00,,OVC020,0.00,VWS V14.01,2016-02-14 13:57:00,
2016-02-14 08:02:00,38.7,22.5,30.03,NNE,26,0.0,0.0,52,0.00,,OVC020,0.00,VWS V14.01,2016-02-14 14:02:00,
2016-02-14 08:07:00,38.7,27.2,30.03,SSE,162,4.4,7.8,63,0.00,,OVC020,0.00,VWS V14.01,2016-02-14 14:07:00,
2016-02-14 08:12:00,38.7,28.5,30.03,SW,214,9.4,11.9,66,0.00,,OVC020,0.00,VWS V14.01,2016-02-14 14:12:00,
2016-02-14 08:17:00,38.1,33.3,30.03,South,187,3.9,6.7,83,0.00,,OVC020,0.00,VWS V14.01,2016-02-14 14:17:00,
2016-02-14 08:22:00,37.8,34.8,30.03,South,181,6.1,7.2,89,0.00,,OVC020,0.00,VWS V14.01,2016-02-14 14:22:00,
2016-02-14 08:27:00,37.4,34.5,30.03,SSE,159,0.0,6.7,89,0.00,,OVC020,0.00,VWS V14.01,2016-02-14 14:27:00,
2016-02-14 08:32:00,37.2,35.2,30.03,South,169,6.1,6.1,92,0.00,,OVC020,0.00,VWS V14.01,2016-02-14 14:32:00,
2016-02-14 08:37:00,37.0,35.5,30.03,SSE,163,5.0,7.8,94,0.00,,OVC020,0.00,VWS V14.01,2016-02-14 14:37:00,
2016-02-14 08:42:00,36.9,36.1,30.03,SSW,198,3.3,3.9,97,0.00,,OVC020,0.00,VWS V14.01,2016-02-14 14:42:00,
2016-02-14 08:52:00,36.7,36.7,30.03,SSE,157,5.0,5.0,100,0.01,,OVC018,0.01,VWS V14.01,2016-02-14 14:52:00,
2016-02-14 08:57:00,36.7,36.7,30.03,South,175,3.3,7.2,100,0.01,,OVC018,0.01,VWS V14.01,2016-02-14 14:57:00,
2016-02-14 09:02:00,36.7,36.7,30.03,SSE,149,2.8,4.4,100,0.01,,OVC018,0.01,VWS V14.01,2016-02-14 15:02:00,
2016-02-14 09:07:00,36.7,36.7,30.03,SSE,165,0.0,4.4,100,0.01,,OVC018,0.01,VWS V14.01,2016-02-14 15:07:00,
2016-02-14 09:12:00,36.7,36.7,30.03,South,169,3.9,3.9,100,0.01,,OVC018,0.01,VWS V14.01,2016-02-14 15:12:00,
2016-02-14 09:17:00,36.7,36.7,30.03,South,175,0.0,3.9,100,0.01,,OVC018,0.01,VWS V14.01,2016-02-14 15:17:00,
2016-02-14 09:23:00,36.7,36.7,30.03,South,175,0.0,0.0,100,0.01,,OVC018,0.01,VWS V14.01,2016-02-14 15:23:00,